Location: ??
(35.4032°N, 139.3073°E)
Time: 12:13:00
(UTC+00:00)

Cosmos 1092 Rocket - Pass Details

Date: 13 April 2024
Orbit: 955 x 993 km, 83.0° (Epoch: 26 May)

Event Time Altitude Azimuth Distance (km) Brightness Sun altitude
Exits shadow 17:43:11 58° 159° (SSE) 1,100 4.1 -28.3°
Maximum altitude 17:44:22 76° 94° (E) 986 4.0 -28.1°
Drops below altitude 10° 17:50:30 10° 10° (N) 2,690 6.9 -27.1°
Sets 17:53:00 0° 9° (N) 3,642 7.6 -26.7°
